Location: Aldenham
(51.6667°N, 0.3500°W)
Time: 17:08:40
(UTC+00:00)

Explorer 7 - Pass Details

Date: 19 February 2026
Orbit: 430 x 542 km, 50.2° (Epoch: 8 March)

Event Time Altitude Azimuth Distance (km) Brightness Sun altitude
Rises 16:00:59 0° 246° (WSW) 2,440 12.1 10.7°
Reaches altitude 10° 16:03:06 10° 242° (WSW) 1,586 12.3 10.4°
Maximum altitude 16:06:36 54° 165° (SSE) 570 7.2 9.9°
Drops below altitude 10° 16:10:14 10° 87° (E) 1,652 8.8 9.5°
Sets 16:12:29 0° 83° (E) 2,555 9.7 9.2°
